Flag for China Weather past 2 weeks in Taiyuan, Shanxi, China

Now
70 °F

Fog.


Feels Like: 70 °F
Forecast: 58 / 83 °F
Wind: 8 mph from East

Location: Taiyuan Airport

Current Time: Aug 29, 2014 at 12:19:15 AM

Latest Report: Aug 28, 2014 at 11:30 PM


Visibility: 3 mi

Pressure: 30.01 "Hg

Humidity: 73%

Dew point: 61 °F

Location of TaiyuanLocation

Historic Weather in Taiyuan — Graph

°F

Taiyuan temperature yesterday

Maximum temperature yesterday: 79 °F (at 2:30 PM)
Minimum temperature yesterday: 61 °F (at 6:00 AM)
Average temperature yesterday: 69 °F

Past Weeks' High & Low Weather Summary

 TemperatureHumidityPressure
High91 °F (Aug 21, 2:30 PM)94% (Aug 14, 3:30 AM)30.09 "Hg (Aug 14, 3:30 AM)
Low52 °F (Aug 14, 6:00 AM)13% (Aug 25, 2:00 PM)29.74 "Hg (Aug 23, 3:00 PM)
Average71 °F59%29.94 "Hg
* Reported Aug 13 11:00 PM — Aug 28 11:00 PM, Taiyuan, Weather by CustomWeather, © 2014

Note: Actual official high and low records may vary slightly from our data, if they occured in-between our weather recording intervals... More about our weather records

Advertising

Taiyuan weather history for previous 24 hours

 ConditionsComfort  
Time TempWeatherWind HumidityBarometerVisibility
11:00 PM
Aug 28
70 °FFog.8 mph78%30.01 "Hg3 mi
10:30 PM70 °FClear.6 mph73%30.01 "Hg4 mi
10:00 PM70 °FClear.8 mph73%30.01 "Hg4 mi
9:30 PM72 °FClear.6 mph73%30.01 "Hg4 mi
9:00 PM70 °FClear.3 mph78%30.01 "Hg4 mi
8:30 PM72 °FClear.1 mph65%30.01 "Hg4 mi
7:30 PM72 °FHaze.1 mph73%29.98 "Hg3 mi
7:00 PM73 °FHaze.1 mph65%29.98 "Hg3 mi
6:30 PM75 °FClear.1 mph57%29.95 "Hg5 mi
6:00 PM77 °FPassing clouds.1 mph54%29.95 "Hg5 mi
5:30 PM77 °FPassing clouds.1 mph47%29.95 "Hg5 mi
5:00 PM79 °FPassing clouds.1 mph48%29.98 "Hg5 mi
4:30 PM79 °FPassing clouds.1 mph48%29.98 "Hg4 mi
4:00 PM79 °FPassing clouds.3 mph48%29.98 "Hg4 mi
3:30 PM79 °FPassing clouds.3 mph48%29.98 "Hg4 mi
3:00 PM77 °FScattered clouds.3 mph51%30.01 "Hg4 mi
2:30 PM79 °FScattered clouds.1 mph48%30.01 "Hg4 mi
2:00 PM77 °FScattered clouds.3 mph51%30.01 "Hg4 mi
1:30 PM75 °FScattered clouds.3 mph57%30.04 "Hg4 mi
1:00 PM75 °FScattered clouds.3 mph57%30.04 "Hg4 mi
12:30 PM73 °FScattered clouds.1 mph57%30.04 "Hg4 mi
12:00 PM73 °FClear.1 mph61%30.04 "Hg4 mi
11:30 AM73 °FClear.3 mph61%30.07 "Hg4 mi
11:00 AM72 °FClear.3 mph65%30.07 "Hg4 mi
10:30 AM72 °FClear.3 mph65%30.07 "Hg4 mi
10:00 AM70 °FHaze.6 mph73%30.07 "Hg2 mi
9:30 AM68 °FFog.3 mph78%30.07 "Hg2 mi
9:00 AM66 °FFog.1 mph83%30.07 "Hg2 mi
8:30 AM64 °FFog.1 mph88%30.07 "Hg2 mi
8:00 AM63 °FFog.3 mph94%30.04 "Hg2 mi
7:30 AM63 °FFog.3 mph94%30.04 "Hg2 mi
7:00 AM63 °FFog.1 mph94%30.04 "Hg3 mi
6:30 AM63 °FFog.1 mph88%30.04 "Hg3 mi
6:00 AM61 °FFog.1 mph94%30.04 "Hg3 mi
5:30 AM63 °FFog.1 mph88%30.04 "Hg3 mi
5:00 AM63 °FFog.1 mph88%30.04 "Hg3 mi
4:30 AM63 °FFog.1 mph94%30.04 "Hg3 mi
4:00 AM63 °FClear.1 mph88%30.04 "Hg4 mi
3:30 AM63 °FClear.1 mph88%30.04 "Hg10 mi
3:00 AM63 °FClear.3 mph88%30.04 "Hg10 mi
2:30 AM63 °FClear.1 mph88%30.04 "Hg10 mi
1:30 AM63 °FClear.1 mph88%30.04 "Hg10 mi
1:00 AM63 °FPassing clouds.3 mph88%30.04 "HgN/A
12:30 AM63 °FPassing clouds.3 mph94%30.07 "Hg4 mi
12:00 AM63 °FSprinkles. Passing clouds.8 mph88%30.07 "Hg4 mi
Weather by CustomWeather, © 2014

See weather overviewHow to use our weather pages